Change the Weather History Date:

Monday, October 29, 2012

  Actual Average Record
Temperature  
Mean Temperature 80 °F -  
Max Temperature 89 °F 87 °F 93 °F (2014)
Min Temperature 71 °F 70 °F 68 °F (2003)
Cooling Degree Days 15    
Growing Degree Days 30 (Base 50)    
Moisture  
Dew Point 73 °F    
Average Humidity 81    
Maximum Humidity 99    
Minimum Humidity 63    
Precipitation  
Precipitation 0.91 in 0.14 in - ()
Sea Level Pressure  
Sea Level Pressure 29.84 in    
Wind  
Wind Speed 4 mph ()    
Max Wind Speed 7 mph    
Max Gust Speed -    
Visibility 6.9 miles    
Events Rain , Thunderstorm    
Averages and records for this station are not official NWS values.
T = Trace of Precipitation, MM = Missing Value Source: Averaged Metar Reports

Daily Weather History Graph

Daily Weather History Graph

Search for Another Location

Airport or City:

Trip Planner

Search our weather history database for the weather conditions in past years. The results will help you decide how hot, cold, wet, or windy it might be!

Date:

Astronomy

Oct. 29, 2012 Rise Set
Actual Time 6:37 AM AST 6:07 PM AST
Civil Twilight 6:14 AM AST 6:29 PM AST
Nautical Twilight 5:49 AM AST 6:55 PM AST
Astronomical Twilight 5:23 AM AST 7:21 PM AST
Moon 6:03 PM AST (10/29) 6:21 AM AST (10/29)
Length of Visible Light 12h 14m
Length of Day
11h 29m
Full, 100% of the Moon is Illuminated
Oct 29
Full
Oct 29
Full
Nov 6
Last Quarter
Nov 13
New
Nov 20
First Quarter

Hourly Weather History & Observations

Time (AST) Temp. Heat Index Dew Point Humidity Pressure Visibility Wind Dir Wind Speed Gust Speed Precip Events Conditions
12:00 AM 77.0 °F - 71.6 °F 83% 29.83 in 6.2 mi Calm Calm - N/A   Mostly Cloudy
1:00 AM 73.4 °F - 69.8 °F 88% 29.80 in 6.2 mi NE 5.8 mph - N/A   Mostly Cloudy
2:00 AM 73 °F - 70 °F 86% 29.82 in 10 mi NNE 6.7 mph - -   Scattered Clouds
2:00 AM 73.4 °F - 69.8 °F 88% 29.80 in 6.2 mi NE 6.9 mph - N/A   Partly Cloudy
3:00 AM 73.4 °F - 69.8 °F 88% 29.80 in 6.2 mi ENE 6.9 mph - N/A   Partly Cloudy
4:00 AM 71.6 °F - 69.8 °F 94% 29.80 in 6.2 mi NE 5.8 mph - N/A   Partly Cloudy
5:00 AM 72 °F - 70 °F 92% 29.81 in 10 mi NE 6.7 mph - -   Scattered Clouds
5:00 AM 71.6 °F - 69.8 °F 94% 29.80 in 6.2 mi NE 5.8 mph - N/A   Partly Cloudy
6:00 AM 71.6 °F - 69.8 °F 94% 29.80 in 6.2 mi NE 5.8 mph - N/A   Partly Cloudy
7:00 AM 73.4 °F - 69.8 °F 88% 29.83 in 6.2 mi NNE 5.8 mph - N/A   Mostly Cloudy
8:00 AM 76 °F - 72 °F 85% 29.87 in 10 mi NNE 6.7 mph - -   Mostly Cloudy
8:00 AM 77.0 °F - 71.6 °F 83% 29.86 in 6.2 mi NNE 5.8 mph - N/A   Mostly Cloudy
9:00 AM 80.6 °F 85.4 °F 73.4 °F 79% 29.89 in 6.2 mi NNE 4.6 mph - N/A   Mostly Cloudy
10:00 AM 84.2 °F 92.3 °F 75.2 °F 74% 29.89 in 6.2 mi NNE 5.8 mph - N/A   Scattered Clouds
11:00 AM 76 °F - 76 °F 99% 29.90 in 10 mi Calm Calm - -   Partly Cloudy
11:00 AM 84.2 °F 92.3 °F 75.2 °F 74% 29.89 in 6.2 mi Calm Calm - N/A   Scattered Clouds
12:00 PM 86.0 °F 95.1 °F 75.2 °F 70% 29.86 in 6.2 mi South 5.8 mph - N/A   Scattered Clouds
1:00 PM 86.0 °F 95.1 °F 75.2 °F 70% 29.86 in 6.2 mi South 5.8 mph - N/A   Scattered Clouds
2:00 PM 86 °F - 75 °F 63% 29.84 in 10 mi South 4.5 mph - -   Partly Cloudy
2:00 PM 86.0 °F 95.1 °F 75.2 °F 70% 29.83 in 6.2 mi South 4.6 mph - N/A   Mostly Cloudy
3:00 PM 86.0 °F 95.1 °F 75.2 °F 70% 29.83 in 6.2 mi SW 6.9 mph - N/A   Mostly Cloudy
4:00 PM 86.0 °F 95.1 °F 75.2 °F 70% 29.80 in 6.2 mi SW 4.6 mph - N/A   Mostly Cloudy
5:00 PM 84 °F - 75 °F 67% 29.75 in 10 mi Calm Calm - -   Scattered Clouds
5:00 PM 84.2 °F 92.3 °F 75.2 °F 74% 29.80 in 6.2 mi Variable 3.5 mph - N/A   Mostly Cloudy
6:00 PM 82.4 °F 89.5 °F 75.2 °F 79% 29.80 in 6.2 mi Variable 3.5 mph - N/A   Mostly Cloudy
7:00 PM 80.6 °F 85.4 °F 73.4 °F 79% 29.80 in 6.2 mi South 5.8 mph - N/A   Scattered Clouds
8:00 PM 74 °F - 74 °F 98% 29.95 in 4 mi Calm Calm - - Rain , Thunderstorm Thunderstorms and Rain
8:00 PM 77.0 °F - 71.6 °F 83% 29.83 in 6.2 mi Calm Calm - N/A   Scattered Clouds
9:00 PM 77.0 °F - 71.6 °F 83% 29.86 in 6.2 mi Calm Calm - N/A   Scattered Clouds
10:00 PM 77.0 °F - 69.8 °F 78% 29.86 in 6.2 mi Calm Calm - N/A   Partly Cloudy
11:00 PM 77.0 °F - 71.6 °F 83% 29.86 in 6.2 mi Calm Calm - N/A   Partly Cloudy